When you browse on this site, cookies collect data to enhance your experience and personalize the content and advertising you see.
Visit our Privacy Policy to learn more. By continuing to use the site, you agree to this use of cookies and data.
  • In Lithuania
  • List of Countries
  • For 7 days
  • Water Temperature
  • Satellite Maps
  • Weather Map
  • Weather Widgets
  • user-avatar
    Login

    Hourly Weather Worcester

    Today, 17 June, Monday

    Time Temperature Precipitation Wind Pressure Humidity
    00:00 +10°C° 0 mm 5 mps 757 mmHg 92%
    01:00 +10°C° 0 mm 5 mps 757 mmHg 93%
    02:00 +10°C° 0 mm 5 mps 757 mmHg 93%
    03:00 +9°C° 0 mm 6 mps 756 mmHg 94%
    04:00 +10°C° 0 mm 6 mps 757 mmHg 93%
    05:00 +10°C° 0 mm 6 mps 757 mmHg 91%
    06:00 +11°C° 0 mm 6 mps 757 mmHg 90%
    07:00 +13°C° 0 mm 6 mps 757 mmHg 88%
    08:00 +14°C° 0 mm 6 mps 757 mmHg 86%
    09:00 +15°C° 0 mm 6 mps 757 mmHg 83%
    10:00 +16°C° 0.1 mm 6 mps 757 mmHg 82%
    11:00 +17°C° 0.1 mm 6 mps 757 mmHg 80%
    12:00 +18°C° 0.1 mm 7 mps 757 mmHg 79%
    13:00 +18°C° 0.4 mm 7 mps 757 mmHg 79%
    14:00 +19°C° 0.4 mm 6 mps 757 mmHg 80%
    15:00 +19°C° 0.4 mm 6 mps 757 mmHg 81%
    16:00 +19°C° 0.2 mm 6 mps 757 mmHg 82%
    17:00 +17°C° 0.2 mm 5 mps 757 mmHg 83%
    18:00 +18°C° 0.2 mm 4 mps 757 mmHg 84%
    19:00 +15°C° 0 mm 4 mps 757 mmHg 88%
    20:00 +14°C° 0 mm 3 mps 757 mmHg 91%
    21:00 +13°C° 0 mm 3 mps 757 mmHg 94%
    22:00 +13°C° 0 mm 2 mps 757 mmHg 95%
    23:00 +12°C° 0 mm 2 mps 757 mmHg 95%

    Tomorrow, 18 June, Tuesday

    Time Temperature Precipitation Wind Pressure Humidity
    00:00 +12°C° 0 mm 2 mps 757 mmHg 96%
    01:00 +12°C° 0 mm 2 mps 757 mmHg 96%
    02:00 +10°C° 0 mm 2 mps 757 mmHg 96%
    03:00 +10°C° 0 mm 2 mps 757 mmHg 97%
    04:00 +12°C° 0 mm 2 mps 757 mmHg 96%
    05:00 +13°C° 0 mm 2 mps 757 mmHg 95%
    06:00 +13°C° 0 mm 2 mps 757 mmHg 95%
    07:00 +14°C° 0 mm 2 mps 756 mmHg 91%
    08:00 +15°C° 0 mm 2 mps 756 mmHg 88%
    09:00 +16°C° 0 mm 2 mps 756 mmHg 84%
    10:00 +17°C° 0 mm 2 mps 756 mmHg 82%
    11:00 +17°C° 0 mm 2 mps 756 mmHg 79%
    12:00 +18°C° 0 mm 2 mps 756 mmHg 76%
    13:00 +17°C° 0.4 mm 2 mps 755 mmHg 82%
    14:00 +16°C° 0.4 mm 1 mps 755 mmHg 87%
    15:00 +15°C° 0.4 mm 1 mps 755 mmHg 93%
    16:00 +15°C° 1.1 mm 1 mps 754 mmHg 94%
    17:00 +14°C° 1.1 mm 1 mps 754 mmHg 96%
    18:00 +14°C° 1.1 mm 1 mps 754 mmHg 97%
    19:00 +14°C° 0.6 mm 1 mps 754 mmHg 97%
    20:00 +13°C° 0.6 mm 1 mps 754 mmHg 97%
    21:00 +13°C° 0.6 mm 1 mps 754 mmHg 97%
    22:00 +13°C° 0 mm 1 mps 753 mmHg 97%
    23:00 +13°C° 0 mm 1 mps 753 mmHg 97%

    Day after tomorrow, 19 June, Wednesday

    Time Temperature Precipitation Wind Pressure Humidity
    00:00 +13°C° 0 mm 1 mps 753 mmHg 96%
    01:00 +13°C° 0 mm 1 mps 752 mmHg 96%
    02:00 +13°C° 0 mm 1 mps 752 mmHg 96%
    03:00 +13°C° 0 mm 1 mps 751 mmHg 96%
    04:00 +13°C° 0.1 mm 1 mps 751 mmHg 96%
    05:00 +13°C° 0.1 mm 1 mps 751 mmHg 96%
    06:00 +13°C° 0.1 mm 1 mps 751 mmHg 96%
    07:00 +14°C° 0.1 mm 2 mps 751 mmHg 96%
    08:00 +14°C° 0.1 mm 2 mps 751 mmHg 95%
    09:00 +14°C° 0.1 mm 2 mps 750 mmHg 95%
    10:00 +13°C° 0.1 mm 3 mps 751 mmHg 94%
    11:00 +14°C° 0.1 mm 3 mps 751 mmHg 93%
    12:00 +14°C° 0.1 mm 4 mps 751 mmHg 93%
    13:00 +13°C° 0.2 mm 4 mps 751 mmHg 93%
    14:00 +13°C° 0.2 mm 3 mps 751 mmHg 93%
    15:00 +13°C° 0.2 mm 3 mps 751 mmHg 93%
    16:00 +14°C° 0.1 mm 3 mps 752 mmHg 90%
    17:00 +15°C° 0.1 mm 2 mps 752 mmHg 87%
    18:00 +16°C° 0.1 mm 2 mps 752 mmHg 83%
    19:00 +15°C° 0.1 mm 2 mps 752 mmHg 86%
    20:00 +12°C° 0.1 mm 3 mps 753 mmHg 89%
    21:00 +11°C° 0.1 mm 3 mps 753 mmHg 92%
    22:00 +10°C° 0 mm 3 mps 753 mmHg 93%
    23:00 +9°C° 0 mm 3 mps 753 mmHg 94%

    20 June, Thursday

    Time Temperature Precipitation Wind Pressure Humidity
    00:00 +8°C° 0 mm 2 mps 753 mmHg 94%
    01:00 +8°C° 0 mm 2 mps 753 mmHg 95%
    02:00 +8°C° 0 mm 2 mps 754 mmHg 95%
    03:00 +8°C° 0 mm 2 mps 754 mmHg 95%
    04:00 +8°C° 0 mm 2 mps 754 mmHg 94%
    05:00 +9°C° 0 mm 3 mps 754 mmHg 94%
    06:00 +10°C° 0 mm 3 mps 754 mmHg 93%
    07:00 +12°C° 0 mm 3 mps 754 mmHg 88%
    08:00 +13°C° 0 mm 4 mps 754 mmHg 83%
    09:00 +14°C° 0 mm 4 mps 755 mmHg 78%
    10:00 +15°C° 0.4 mm 5 mps 755 mmHg 79%
    11:00 +15°C° 0.4 mm 5 mps 755 mmHg 80%
    12:00 +15°C° 0.4 mm 5 mps 755 mmHg 81%
    13:00 +15°C° 0.3 mm 5 mps 755 mmHg 81%
    14:00 +15°C° 0.3 mm 5 mps 755 mmHg 80%
    15:00 +15°C° 0.3 mm 5 mps 755 mmHg 80%
    16:00 +15°C° 0.1 mm 5 mps 755 mmHg 80%
    17:00 +15°C° 0.1 mm 4 mps 755 mmHg 81%
    18:00 +15°C° 0.1 mm 4 mps 755 mmHg 81%
    19:00 +13°C° 0 mm 4 mps 755 mmHg 85%
    20:00 +11°C° 0 mm 3 mps 755 mmHg 88%
    21:00 +10°C° 0 mm 3 mps 755 mmHg 91%
    22:00 +9°C° 0 mm 3 mps 756 mmHg 92%
    23:00 +9°C° 0 mm 3 mps 756 mmHg 93%

    21 June, Friday

    Time Temperature Precipitation Wind Pressure Humidity
    00:00 +8°C° 0 mm 3 mps 756 mmHg 95%
    01:00 +8°C° 0 mm 3 mps 756 mmHg 95%
    02:00 +8°C° 0 mm 3 mps 756 mmHg 95%
    03:00 +8°C° 0 mm 3 mps 756 mmHg 96%
    04:00 +9°C° 0 mm 3 mps 756 mmHg 94%
    05:00 +10°C° 0 mm 3 mps 756 mmHg 93%
    06:00 +10°C° 0 mm 3 mps 757 mmHg 91%
    07:00 +12°C° 0.1 mm 3 mps 757 mmHg 86%
    08:00 +13°C° 0.1 mm 3 mps 757 mmHg 81%
    09:00 +16°C° 0.1 mm 3 mps 757 mmHg 76%
    10:00 +16°C° 0.2 mm 3 mps 757 mmHg 74%
    11:00 +16°C° 0.2 mm 3 mps 757 mmHg 72%
    12:00 +17°C° 0.2 mm 3 mps 757 mmHg 70%
    13:00 +17°C° 0.2 mm 3 mps 758 mmHg 70%
    14:00 +17°C° 0.2 mm 3 mps 758 mmHg 70%
    15:00 +18°C° 0.2 mm 4 mps 758 mmHg 70%
    16:00 +17°C° 0.1 mm 3 mps 758 mmHg 71%
    17:00 +17°C° 0.1 mm 3 mps 758 mmHg 73%
    18:00 +17°C° 0.1 mm 3 mps 758 mmHg 75%
    19:00 +15°C° 0 mm 2 mps 759 mmHg 79%
    20:00 +13°C° 0 mm 2 mps 759 mmHg 83%
    21:00 +10°C° 0 mm 2 mps 760 mmHg 87%
    22:00 +10°C° 0 mm 1 mps 760 mmHg 86%
    23:00 +10°C° 0 mm 1 mps 760 mmHg 86%

    22 June, Saturday

    Time Temperature Precipitation Wind Pressure Humidity
    00:00 +9°C° 0 mm 1 mps 760 mmHg 86%
    01:00 +9°C° 0 mm 1 mps 760 mmHg 86%
    02:00 +8°C° 0 mm 1 mps 760 mmHg 87%
    03:00 +8°C° 0 mm 1 mps 760 mmHg 87%
    04:00 +9°C° 0 mm 1 mps 760 mmHg 86%
    05:00 +10°C° 0 mm 1 mps 760 mmHg 85%
    06:00 +10°C° 0 mm 1 mps 760 mmHg 84%
    07:00 +12°C° 0 mm 1 mps 760 mmHg 80%
    08:00 +13°C° 0 mm 1 mps 760 mmHg 76%
    09:00 +15°C° 0 mm 2 mps 760 mmHg 72%
    10:00 +16°C° 0.1 mm 2 mps 760 mmHg 71%
    11:00 +17°C° 0.1 mm 2 mps 760 mmHg 70%
    12:00 +17°C° 0.1 mm 2 mps 760 mmHg 68%
    13:00 +18°C° 0.1 mm 2 mps 760 mmHg 68%
    14:00 +18°C° 0.1 mm 2 mps 760 mmHg 68%
    15:00 +19°C° 0.1 mm 2 mps 760 mmHg 68%
    16:00 +18°C° 0.3 mm 3 mps 760 mmHg 74%
    17:00 +17°C° 0.3 mm 3 mps 760 mmHg 80%
    18:00 +16°C° 0.3 mm 3 mps 760 mmHg 86%
    19:00 +14°C° 0.1 mm 3 mps 760 mmHg 88%
    20:00 +13°C° 0.1 mm 3 mps 760 mmHg 90%
    21:00 +12°C° 0.1 mm 3 mps 761 mmHg 92%
    22:00 +12°C° 0 mm 3 mps 761 mmHg 92%
    23:00 +11°C° 0 mm 3 mps 761 mmHg 93%
    Show more